Theta_e
316 317 319 318 319 319 318 317 317 316 315 315 316 317 317 318 319 319 319 321 320 318 318 320 321 321 321 319 316 316 317 316 317 318 318 319 319 318 319 318 318 318 318 318 318 317 317 315 314 313 312 311 310 309 308 307 306 307 307 307 307 306 306 307 307 307 309 310 310 310 309 309 308 305 301 298 296 294 294 294 294 294 294 294 294 294 294
318 317 318 319 319 318 317 317 316 316 315 315 315 316 316 317 318 318 318 321 320 317 318 320 317 315 315 316 317 316 315 316 317 317 317 318 318 318 318 318 318 318 318 318 318 317 317 316 315 314 313 312 312 310 309 307 306 306 306 306 307 306 306 306 307 307 308 309 310 309 309 309 308 305 300 297 296 294 294 294 293 293 294 294 294 293 293
319 318 317 318 318 317 317 317 316 315 315 315 315 315 316 316 317 317 317 319 318 316 318 319 315 313 315 315 315 314 315 317 317 316 317 317 318 318 318 318 318 318 318 318 318 318 317 317 316 315 314 312 311 311 310 308 307 306 305 306 306 306 306 306 307 307 307 308 309 309 309 309 308 306 302 297 295 294 293 293 293 293 293 293 293 293 293
319 318 318 318 317 317 316 316 316 316 315 315 315 315 316 316 317 317 317 317 317 316 318 317 314 313 314 313 312 313 315 316 316 316 317 317 317 318 317 318 318 318 317 318 317 318 318 317 317 315 314 312 311 311 311 309 307 306 305 305 305 305 306 306 307 307 307 307 308 309 309 308 308 307 304 300 296 294 293 293 293 293 293 293 293 293 293
319 318 318 318 317 317 317 316 316 316 315 315 316 315 315 315 316 317 317 317 316 317 319 319 318 319 316 312 313 314 315 315 316 315 316 316 316 317 317 317 317 317 317 317 317 317 317 317 316 315 313 311 311 310 310 308 307 306 305 305 304 304 305 306 306 307 307 307 308 309 309 309 309 308 307 304 299 296 294 293 293 292 293 293 293 293 292
319 317 317 318 318 318 319 318 316 316 315 315 316 316 315 314 315 315 316 317 316 317 318 318 318 319 318 315 315 316 315 315 315 315 315 316 316 316 316 316 316 317 316 316 317 317 317 317 316 314 312 310 309 309 308 307 306 305 304 304 304 304 304 304 305 306 307 307 308 309 309 310 309 308 307 306 303 299 295 293 293 292 292 292 292 292 292
318 317 316 319 320 319 320 322 320 317 315 315 315 316 315 314 314 315 315 316 316 315 316 315 314 314 315 315 315 316 315 314 314 314 315 315 316 316 316 316 316 316 316 316 316 316 316 316 315 313 311 310 309 308 308 307 306 304 304 303 303 303 303 303 304 305 306 307 308 308 309 309 308 307 306 305 304 302 297 294 292 292 292 292 292 292 292
317 317 318 320 320 319 320 324 322 318 316 316 316 316 315 314 314 315 314 315 315 315 314 313 313 313 313 314 314 314 314 314 314 315 315 315 316 315 315 315 315 315 315 315 315 315 315 314 314 313 312 310 309 308 307 306 304 304 303 302 302 302 302 302 303 304 305 306 307 307 308 307 306 306 305 304 303 301 299 295 292 291 291 292 291 291 291
317 318 319 319 320 319 320 322 320 317 317 317 317 317 317 315 314 314 314 314 314 314 313 313 313 312 312 313 313 313 313 314 315 315 315 315 315 314 314 314 314 314 314 314 314 314 313 313 313 312 311 309 308 306 305 304 303 303 302 301 301 301 301 301 302 302 303 305 306 306 306 306 305 304 304 302 300 299 297 295 293 292 291 291 291 290 291
316 318 320 319 320 321 320 319 318 315 314 315 316 318 318 318 315 313 313 314 314 313 313 312 311 312 313 315 314 312 313 315 314 314 314 314 314 314 314 314 313 313 312 312 312 312 312 312 311 310 309 307 306 305 304 303 302 302 301 301 301 301 301 301 301 301 302 304 305 305 304 304 304 303 302 300 298 297 296 295 293 292 290 290 290 290 292
316 317 319 320 321 321 320 320 320 316 312 313 316 318 319 319 316 313 312 314 314 313 312 311 311 313 315 316 314 312 313 314 313 313 314 313 313 314 313 313 313 312 311 311 311 311 311 310 309 308 307 306 305 304 303 302 302 301 301 301 301 300 300 300 301 301 302 303 303 303 303 302 301 300 299 298 297 297 296 295 294 292 291 291 291 292 293
317 317 318 319 320 320 321 321 318 313 310 313 318 320 321 318 314 312 312 312 313 312 311 311 313 314 316 315 313 311 311 312 312 313 313 312 313 313 312 312 311 311 310 310 310 309 309 308 307 306 306 305 305 304 303 302 302 301 301 300 300 300 300 300 300 300 301 301 301 301 300 300 299 298 298 297 298 298 297 297 296 296 296 295 295 295 294
316 316 318 319 318 320 321 316 310 308 311 316 320 322 320 313 311 312 312 312 313 313 312 311 312 313 313 313 311 310 310 311 311 312 312 312 312 311 311 310 309 309 309 308 308 307 307 307 307 306 306 305 305 303 302 302 301 300 300 299 299 299 299 299 299 299 299 299 299 298 298 298 297 297 297 297 297 297 297 297 296 296 295 295 294 294 293
315 316 318 317 318 320 317 310 305 308 316 321 319 316 314 312 311 313 313 314 315 315 313 312 312 312 311 311 310 310 310 310 310 311 311 310 310 309 309 308 308 307 307 307 307 307 307 306 306 305 305 305 304 302 301 300 299 299 298 298 297 297 297 297 297 297 297 297 297 297 297 297 297 297 296 296 296 296 295 295 294 294 294 293 292 292 291
316 316 316 317 319 318 313 309 309 312 317 318 315 312 311 311 313 314 314 315 315 315 313 312 312 311 310 310 310 309 309 309 309 309 309 309 309 309 308 308 308 308 308 308 308 308 307 306 305 305 304 303 302 302 300 299 299 298 298 297 297 297 297 297 297 297 297 297 297 297 297 296 296 296 295 295 295 295 294 294 293 293 293 292 292 292 291
316 317 318 319 318 315 311 312 314 314 313 312 312 313 311 310 311 313 314 314 314 314 312 312 312 311 310 310 309 309 309 308 308 308 308 308 309 309 309 309 308 308 309 309 308 307 307 306 305 304 303 303 302 301 301 300 300 299 299 299 298 299 299 299 299 299 298 298 297 297 296 296 295 295 294 294 293 293 292 292 291 291 291 291 290 290 290
316 316 316 314 311 308 309 311 311 311 311 311 310 312 312 310 311 312 313 313 313 313 312 311 311 310 310 309 308 308 307 307 307 307 308 308 308 308 308 308 307 307 307 307 307 306 305 304 303 303 302 302 302 302 301 301 300 300 300 300 299 299 299 299 298 298 297 296 296 295 294 294 293 293 292 292 291 291 291 290 290 290 289 289 289 289 289
315 312 310 308 306 305 306 307 306 308 310 310 309 309 311 311 312 311 311 312 312 312 311 311 310 310 309 308 307 306 306 306 306 306 306 306 305 306 306 305 305 305 305 305 305 304 304 302 302 302 301 300 301 301 301 300 300 299 299 299 298 298 297 296 296 295 295 295 294 294 293 293 292 292 292 291 291 291 290 290 290 289 289 289 289 289 289
315 315 314 312 309 305 305 305 305 305 306 307 307 308 309 310 310 309 309 310 310 310 310 310 310 309 307 307 306 305 305 305 305 305 305 304 304 304 304 304 303 303 303 303 303 303 302 301 300 301 300 299 299 299 299 298 298 298 297 297 296 296 296 296 295 295 295 294 294 294 294 293 293 292 292 292 291 291 291 290 290 290 290 290 290 290 290
313 315 313 307 303 302 303 304 305 305 305 305 306 306 307 308 308 307 307 307 308 309 309 309 309 308 306 306 306 305 304 304 303 303 303 303 303 303 302 301 301 301 301 301 300 300 300 299 298 298 298 298 298 297 297 297 297 296 296 296 296 296 295 295 295 294 294 294 293 293 293 293 292 292 292 292 291 291 291 290 290 290 290 290 290 289 289
311 312 309 303 303 305 306 303 303 303 303 303 304 304 305 306 306 306 306 306 307 308 308 307 307 306 305 305 305 304 303 303 302 302 301 301 301 300 299 298 298 298 298 297 297 297 297 297 297 297 297 297 296 296 296 296 295 295 295 294 294 294 293 293 293 292 292 292 292 291 291 291 291 291 291 290 290 290 290 290 290 290 290 290 290 289 289
311 313 311 307 309 313 311 306 304 303 302 303 304 304 304 305 306 306 306 306 306 306 306 306 306 306 305 304 303 303 303 302 301 300 299 299 298 297 297 296 296 296 296 296 296 295 295 295 296 296 296 296 295 295 295 294 293 293 293 292 292 292 291 291 291 291 291 291 291 290 290 290 290 290 290 290 290 290 290 290 290 290 290 289 289 289 289
313 311 310 308 309 312 312 309 307 306 305 305 306 306 306 306 305 305 305 305 305 305 304 304 304 304 304 302 302 302 301 300 299 298 297 297 296 296 295 295 295 295 295 295 294 294 294 294 295 295 294 294 294 293 293 292 292 292 291 291 291 291 291 291 291 291 291 291 290 290 290 290 290 290 290 290 290 290 290 290 290 289 289 289 289 289 289
311 309 308 309 309 309 310 310 310 308 307 307 306 306 305 305 304 304 304 305 305 304 303 302 302 302 302 301 300 300 299 298 297 296 296 295 295 295 294 294 294 294 294 294 294 293 293 293 293 293 293 292 292 292 292 291 291 291 291 291 291 291 291 291 291 291 291 291 290 290 290 290 290 290 290 290 290 290 289 289 289 289 289 289 289 289 289
309 308 308 308 309 308 308 309 309 308 307 306 305 305 304 303 302 303 303 303 303 302 302 302 301 300 300 299 298 298 298 296 295 295 294 294 294 294 293 293 293 293 293 293 293 293 293 292 292 292 292 292 291 291 291 291 291 291 291 291 291 291 291 291 291 291 291 290 290 290 290 290 290 290 290 290 290 290 290 290 289 289 289 289 289 289 289
307 307 307 307 306 306 306 306 306 305 305 305 304 303 302 301 301 301 300 300 301 301 302 301 299 298 297 297 297 297 296 295 294 294 293 293 293 293 293 293 293 293 293 293 293 293 293 292 292 292 292 292 291 291 291 291 291 291 291 291 291 291 291 291 291 290 290 290 290 290 290 290 290 290 290 290 290 290 290 290 289 289 289 289 289 289 288
305 306 306 305 303 303 305 306 306 305 305 304 303 301 300 299 299 299 299 299 299 299 300 300 299 297 296 296 296 296 295 294 294 293 293 293 293 293 293 293 293 293 293 293 293 293 293 292 292 292 292 292 291 291 291 291 291 291 291 291 291 291 290 290 290 290 290 290 290 290 290 290 290 290 290 290 290 290 289 289 289 289 289 289 288 288 287
304 305 305 305 304 304 305 306 306 305 304 303 301 299 299 298 299 299 300 300 300 300 299 300 300 298 297 296 296 295 295 294 293 293 293 293 293 293 293 293 293 293 293 293 293 292 292 292 292 292 292 291 291 291 291 291 291 291 291 291 291 291 291 290 290 290 290 290 290 290 290 290 290 290 290 290 290 289 289 289 288 288 288 287 287 287 287
303 303 304 304 305 306 306 305 304 304 303 301 299 298 299 299 300 300 301 301 301 300 299 299 299 299 298 297 296 295 295 294 293 293 293 293 293 293 293 293 293 293 292 292 292 292 292 292 291 291 291 291 291 291 291 291 291 291 291 291 291 291 291 291 291 291 291 291 291 290 290 290 290 290 289 289 289 289 288 288 288 287 287 286 286 285 285
302 302 303 303 303 304 305 304 303 304 303 301 298 298 300 301 301 301 301 300 299 299 298 298 298 298 297 296 295 294 294 294 293 293 293 293 293 293 293 292 293 292 292 292 292 292 292 291 291 291 291 291 291 291 291 291 291 291 291 291 291 291 291 291 291 291 290 290 290 290 289 289 289 288 288 288 288 288 287 287 287 286 286 285 284 284 283
301 301 302 301 301 302 303 302 303 304 304 302 300 299 299 300 300 300 300 298 297 296 296 296 296 296 295 294 294 293 293 293 293 293 293 293 292 292 292 292 292 292 292 292 292 291 291 291 291 291 291 291 291 291 291 291 291 291 291 291 291 291 291 290 290 290 290 289 289 288 288 288 288 288 288 287 287 287 286 286 286 285 284 283 283 282 282
300 298 298 299 299 300 301 301 301 303 304 302 301 300 299 299 300 300 299 297 296 295 295 296 296 295 295 294 293 293 292 293 292 292 292 292 292 292 292 292 292 292 292 291 291 291 291 291 291 291 291 291 291 291 291 291 291 291 290 290 290 290 290 290 289 289 288 288 288 288 287 287 287 287 287 286 286 286 285 285 284 283 283 282 282 282 281
298 295 295 296 297 298 299 300 300 301 302 303 302 300 299 298 299 299 298 296 295 295 295 295 295 295 294 293 293 292 292 292 292 292 292 292 292 292 292 292 291 291 291 291 291 291 291 291 291 291 291 291 291 291 290 290 290 290 290 290 290 289 289 288 288 288 287 287 287 287 287 287 286 286 286 285 285 284 284 283 283 283 282 282 282 281 280
299 298 298 299 300 300 300 300 300 300 301 301 301 299 297 297 297 297 296 296 295 295 295 295 294 294 293 293 292 292 292 292 292 292 292 292 292 292 292 291 291 291 291 291 291 291 291 291 291 290 291 290 290 290 290 290 290 289 289 289 288 288 288 287 287 287 287 287 287 286 286 286 285 285 284 284 283 283 283 282 282 282 281 281 280 280 279
298 299 300 300 301 302 302 301 300 299 299 300 300 298 297 295 295 295 296 296 295 295 295 294 293 293 293 293 292 292 292 292 292 292 292 292 292 292 291 291 291 291 291 290 290 290 290 290 290 290 290 290 290 290 290 289 289 288 288 288 287 287 287 287 287 286 286 286 286 286 285 285 284 284 283 283 282 282 282 281 281 280 280 279 279 278 278
296 297 298 298 299 300 301 301 300 299 299 299 299 299 297 295 294 295 295 295 295 295 294 293 293 293 292 292 292 292 292 292 292 292 292 292 292 291 291 291 291 291 291 290 290 290 290 290 290 290 290 290 289 289 288 288 287 287 287 287 287 287 286 286 286 286 285 285 285 285 284 284 283 283 282 282 281 281 280 280 280 279 279 278 278 277 277
295 295 296 297 298 298 299 299 299 298 298 297 298 298 297 296 295 295 295 295 294 294 293 293 292 292 292 292 292 292 292 292 292 292 292 292 291 291 291 291 290 290 290 290 290 290 290 290 290 289 289 289 288 288 287 287 287 287 286 286 286 286 285 285 285 285 284 284 284 283 283 282 282 281 281 280 280 280 279 279 279 278 278 277 276 276 275
293 293 294 295 296 297 298 298 297 296 296 296 296 297 297 296 295 295 294 294 294 293 292 292 292 292 292 292 292 292 292 292 292 291 291 291 291 291 290 290 290 290 290 290 290 289 289 289 289 288 288 287 287 287 286 286 286 286 286 285 285 285 284 284 284 283 283 283 282 282 281 281 280 280 280 279 279 279 278 278 277 277 276 276 275 274 274
291 292 293 294 295 296 296 296 295 295 295 295 295 295 295 295 295 294 294 293 292 292 292 292 292 292 292 292 292 292 292 292 291 291 291 290 290 290 290 290 290 289 289 289 289 288 288 288 287 287 286 286 286 286 286 286 285 285 285 284 284 284 283 283 282 282 282 281 281 280 280 280 279 279 279 278 278 277 277 276 276 275 275 274 274 273 273
289 290 291 292 293 294 295 295 294 294 294 293 293 294 294 294 294 293 293 292 292 292 292 292 292 292 292 292 292 292 292 291 291 290 290 290 290 290 289 289 289 289 289 288 287 287 286 286 286 286 286 286 285 285 285 285 284 284 284 283 283 283 282 281 281 280 280 280 280 279 279 279 279 278 278 277 277 276 276 275 275 274 274 273 273 273 272
287 288 289 290 291 292 293 293 293 293 293 292 292 293 293 293 292 292 292 292 292 292 292 292 292 292 292 292 292 291 291 291 290 290 289 289 289 289 289 289 288 288 287 287 286 286 285 285 285 285 285 285 284 284 284 284 283 283 283 282 281 281 280 280 280 279 279 279 279 279 278 278 278 277 277 276 275 275 274 274 274 273 273 273 272 272 272
284 285 287 288 289 290 291 291 292 292 292 292 291 291 291 291 291 291 291 291 292 292 292 291 291 291 291 291 291 290 290 290 290 289 289 289 288 288 288 287 287 286 286 286 285 285 285 284 284 284 284 284 283 283 283 283 282 282 281 281 280 279 279 279 279 278 278 278 278 278 277 277 276 276 275 274 274 274 273 273 273 273 272 272 272 272 272
282 283 285 286 287 289 289 289 290 291 291 291 290 290 291 291 291 291 291 291 291 291 291 291 290 290 290 290 290 290 290 289 289 289 289 288 287 286 286 285 285 285 285 284 284 284 284 284 283 283 283 283 282 282 282 281 281 280 279 279 279 278 278 278 278 277 277 277 277 276 276 275 275 274 274 273 273 273 273 272 272 272 272 272 271 271 271
281 281 282 284 285 286 287 287 288 289 290 290 290 289 290 290 290 290 290 290 290 290 290 290 290 290 289 289 289 289 289 289 288 288 287 287 286 285 284 284 284 284 284 283 283 283 283 282 282 282 282 282 281 281 280 279 279 278 278 278 278 277 277 277 277 276 276 276 276 275 275 274 274 273 273 273 272 272 272 272 272 271 271 271 271 271 271
280 280 280 282 283 284 285 286 286 287 288 289 289 289 289 289 289 289 289 289 289 289 289 289 289 289 289 289 288 288 287 287 287 286 286 285 285 284 284 283 283 283 282 282 282 282 282 281 281 281 280 280 279 279 278 278 278 277 277 277 276 276 276 276 275 275 275 275 275 274 274 273 273 272 272 272 272 271 271 271 271 271 271 271 270 270 270
279 279 279 280 281 282 283 284 284 285 286 287 288 288 287 288 288 288 288 288 288 288 288 288 288 288 288 287 287 286 286 285 285 284 284 283 283 283 282 282 282 281 281 281 281 281 280 280 279 279 278 278 277 277 277 277 277 276 276 276 275 275 275 275 274 274 274 274 273 273 273 272 272 272 272 271 271 271 271 271 270 270 270 270 270 270 269
278 278 278 279 279 280 282 282 283 284 285 285 286 286 286 286 287 287 287 287 287 287 287 287 286 286 285 284 284 284 284 284 283 283 282 282 281 281 281 281 281 280 280 280 279 279 279 278 277 277 277 277 276 276 276 276 276 275 275 275 274 274 274 274 273 273 273 273 273 272 272 272 271 271 271 271 271 270 270 270 270 270 269 269 269 269 269
276 277 277 278 278 279 280 280 281 282 282 282 284 285 285 285 285 286 286 285 285 285 285 285 284 283 283 282 282 281 281 281 281 281 281 281 280 280 280 280 279 279 278 278 277 277 277 276 276 276 276 276 276 275 275 275 274 274 274 273 273 273 273 273 273 272 272 272 272 271 271 271 271 270 270 270 270 270 270 269 269 269 269 269 269 269 269
275 276 276 277 278 278 278 279 280 280 279 280 282 283 283 283 284 284 283 283 283 283 282 282 281 281 281 280 280 280 280 280 279 280 280 279 279 279 278 278 277 277 276 276 276 276 276 275 275 275 275 275 274 274 274 273 273 273 273 272 272 272 272 272 272 271 271 271 271 271 270 270 270 270 270 269 269 269 269 269 269 269 268 268 268 268 268
272 273 275 275 275 276 276 276 277 277 277 278 279 279 279 280 281 281 280 280 280 280 280 280 279 279 279 279 279 278 278 278 278 278 277 277 277 277 277 276 276 276 276 275 275 275 275 274 274 274 274 273 273 273 273 272 272 272 272 271 271 271 271 271 271 270 270 270 270 270 270 269 269 269 269 269 269 269 268 268 268 268 268 268 268 268 268
270 271 272 272 272 272 273 273 274 275 275 275 275 275 276 277 278 278 277 277 278 278 278 278 278 277 277 277 277 276 276 276 276 276 276 276 276 276 275 275 275 275 275 274 274 274 273 273 273 273 273 272 272 272 272 271 271 271 271 271 270 270 270 270 270 270 269 269 269 269 269 269 269 269 269 268 268 268 268 268 268 267 267 267 267 267 267
268 269 270 270 270 270 271 271 271 272 272 272 272 272 273 275 276 276 275 274 275 275 276 276 276 275 275 274 275 275 275 275 275 275 275 275 275 274 274 274 274 274 273 273 273 272 272 272 272 272 271 271 271 271 270 270 270 270 270 270 270 269 269 269 269 269 269 269 269 269 268 268 268 268 268 268 268 268 267 267 267 267 267 267 267 267 267
Wind_Speed
19 17 8 10 10 10 12 14 15 15 14 15 16 20 23 14 8 17 15 10 15 22 13 11 11 9 9 11 14 18 18 17 17 16 17 21 23 24 25 26 26 23 23 25 26 28 28 25 23 22 22 24 26 28 31 34 37 38 39 39 39 39 40 40 39 39 39 38 37 36 36 35 34 35 39 44 48 49 47 45 44 42 40 40 39 38 36
16 18 11 10 10 7 7 11 15 16 17 19 22 24 26 19 15 21 17 9 17 20 10 10 14 17 20 20 19 20 19 22 24 23 24 24 25 27 28 29 30 27 26 28 29 30 30 28 27 25 24 24 24 27 30 33 36 38 39 40 40 40 40 40 39 38 38 38 38 37 37 35 34 35 39 44 48 49 47 45 44 43 42 41 40 39 37
11 17 15 9 10 9 9 9 10 13 18 22 25 24 20 14 15 22 20 15 19 14 7 9 15 19 21 20 21 24 26 29 30 29 30 30 30 31 31 31 32 31 30 31 31 32 31 30 30 28 26 25 24 26 29 32 35 37 39 40 41 41 41 40 39 38 37 38 39 38 37 36 35 35 37 43 47 49 47 45 45 44 43 43 41 39 38
11 17 18 13 10 10 11 11 12 17 21 21 19 16 14 14 17 21 18 16 18 9 6 8 12 14 14 16 21 26 30 33 33 33 34 35 34 34 34 33 34 34 34 32 31 31 31 31 32 30 28 26 25 26 28 31 34 36 38 40 40 41 41 40 40 39 37 37 38 39 38 37 36 34 35 40 45 48 48 46 45 45 44 43 42 41 40
12 17 14 9 7 7 10 14 20 23 21 16 12 11 16 20 18 16 14 16 20 10 5 8 10 8 10 17 24 29 32 33 34 34 34 35 35 35 35 35 35 34 33 31 30 29 30 32 33 30 28 27 25 25 27 29 32 34 37 39 40 40 40 40 40 40 38 37 37 38 38 37 37 36 35 38 42 46 48 47 47 46 45 44 43 42 41
10 11 5 4 6 9 11 13 19 22 20 17 16 17 22 21 16 14 14 15 19 14 8 10 10 10 16 24 31 34 33 30 28 29 31 33 34 35 35 34 33 31 30 28 28 27 28 32 33 29 26 25 23 23 26 28 30 32 34 37 38 39 39 39 40 40 39 38 37 37 38 37 38 38 37 37 40 44 47 49 49 48 47 46 45 43 41
4 2 5 5 8 10 8 5 8 14 17 20 22 22 23 19 15 16 17 19 22 20 16 15 15 18 25 30 34 35 33 29 27 28 32 36 36 36 35 32 31 29 27 26 26 26 28 31 31 27 23 22 21 22 24 26 27 28 31 34 36 37 38 39 39 40 39 38 37 38 38 39 39 39 38 38 40 43 47 50 50 49 47 46 45 43 41
2 2 5 8 6 3 5 5 3 6 10 15 16 17 19 18 16 17 20 25 27 23 22 23 21 21 22 25 32 35 31 29 31 34 38 39 38 37 35 32 31 28 25 25 25 27 29 29 27 24 20 19 19 19 21 23 24 25 27 30 32 33 35 37 38 38 38 37 37 37 38 38 38 38 38 38 39 41 45 48 49 48 46 46 45 43 41
5 5 7 7 6 7 9 11 6 6 9 12 12 12 16 18 18 19 20 24 26 23 25 29 24 17 14 17 25 30 29 33 38 38 39 38 35 34 33 32 32 29 26 26 26 26 26 24 22 20 17 16 16 16 18 20 20 22 23 25 27 28 30 32 34 35 36 36 36 37 37 37 37 36 36 36 37 38 40 43 46 47 47 46 45 43 40
5 7 7 6 5 8 15 14 7 10 13 13 12 10 12 12 18 23 23 22 23 19 21 25 17 8 7 11 16 20 24 29 30 27 27 27 26 26 27 27 28 27 25 25 23 22 20 18 17 15 13 12 11 12 13 15 16 18 19 20 21 22 24 26 28 30 32 33 34 35 35 34 34 33 32 32 33 33 34 37 41 43 44 44 43 42 42
5 7 8 7 6 9 15 11 5 13 19 15 11 6 11 13 18 25 22 18 19 19 21 21 10 5 6 11 14 16 16 15 16 16 17 18 17 18 20 21 23 22 20 20 19 18 16 14 13 11 8 7 7 7 8 9 11 13 13 13 14 16 17 19 21 23 25 27 29 30 31 31 30 29 29 29 29 29 30 32 35 39 41 42 43 44 43
8 8 8 6 5 8 11 6 4 12 22 20 11 5 12 12 13 22 22 18 22 27 28 19 8 6 11 14 14 14 10 9 11 11 11 12 13 15 16 16 17 16 15 14 13 11 10 9 8 8 8 8 7 7 7 7 7 7 6 6 8 9 11 13 14 17 19 21 23 24 25 26 26 26 26 25 25 25 26 28 30 33 36 39 41 41 39
11 11 9 5 3 8 9 5 10 17 21 16 7 10 10 5 11 23 28 28 32 35 29 18 13 18 25 22 16 13 9 8 9 9 11 13 13 13 13 12 12 11 9 8 8 8 9 10 10 10 10 9 9 8 8 6 6 5 6 6 7 7 8 10 11 13 14 16 17 18 19 20 20 20 19 19 19 20 21 23 25 27 29 30 32 33 33
10 10 9 6 5 9 6 8 14 19 14 7 10 7 3 6 14 23 29 32 35 35 30 26 25 28 27 23 19 16 12 11 11 10 12 11 9 8 8 7 7 8 10 11 12 13 12 11 10 9 9 8 8 8 7 7 7 7 8 8 8 9 9 9 10 10 11 12 12 13 13 13 13 13 13 14 15 16 17 18 20 21 22 24 25 28 30
7 7 8 7 8 8 13 16 8 8 8 6 7 7 4 5 14 20 24 28 30 29 28 28 27 24 20 18 17 15 12 11 10 9 8 8 7 7 8 9 11 12 12 13 13 12 12 11 10 9 9 9 10 11 10 10 10 10 10 9 9 9 9 8 8 9 9 10 10 10 10 10 10 10 11 12 13 13 14 15 16 18 19 21 23 25 27
7 8 9 8 5 6 23 21 7 12 16 7 3 9 7 7 13 18 21 24 26 25 24 23 21 20 18 16 14 12 10 9 8 9 10 9 10 11 11 12 12 12 11 12 12 12 11 11 11 11 11 11 13 13 12 12 12 11 11 11 11 10 10 9 9 9 10 10 9 9 8 8 9 9 9 10 10 11 12 13 15 16 18 19 21 24 26
5 5 6 4 1 8 22 18 8 15 26 19 8 8 10 11 15 16 17 20 22 21 20 18 17 18 17 15 13 11 11 11 12 12 12 12 12 12 13 13 13 12 11 12 13 13 13 14 14 14 14 14 14 14 13 12 12 12 11 11 11 11 10 10 10 10 9 9 8 8 8 8 8 7 8 8 9 9 10 12 13 15 16 18 20 22 23
3 2 3 1 2 6 15 15 8 10 22 24 17 12 10 11 14 14 14 16 17 18 18 17 16 16 15 15 14 13 14 14 14 14 14 13 13 13 14 14 14 13 13 13 15 16 17 18 17 18 18 16 15 14 14 13 13 12 12 12 11 11 11 11 10 10 9 9 9 8 8 8 7 7 7 7 7 8 10 11 12 13 14 16 17 19 20
3 4 4 3 4 7 10 13 11 9 14 18 17 15 12 12 12 12 12 12 14 16 16 15 15 15 15 16 17 17 17 16 16 15 15 16 16 15 15 15 15 14 15 15 16 17 18 19 18 18 18 17 16 15 15 14 14 13 13 13 12 12 12 11 11 11 10 10 9 9 8 8 7 7 7 7 7 7 8 9 10 11 12 14 15 16 17
4 4 5 5 6 9 13 17 16 13 12 15 16 15 14 13 12 13 12 12 13 15 14 13 14 16 17 19 20 20 19 19 19 19 19 19 19 18 18 17 17 16 16 16 17 17 18 19 18 17 17 17 17 16 16 16 15 14 14 14 13 12 12 11 11 10 9 9 8 7 7 7 6 5 5 4 4 5 6 7 8 10 11 13 14 16 17
3 4 5 3 5 9 15 22 21 15 13 15 15 15 16 16 16 16 14 13 13 14 14 14 16 18 20 21 21 22 23 22 23 22 22 22 21 20 20 19 18 17 17 18 19 19 19 20 19 18 18 17 17 17 16 16 15 14 14 13 12 11 10 9 9 8 7 7 6 6 6 5 5 4 4 4 4 5 6 8 9 11 13 14 15 17 19
5 7 7 8 5 5 10 20 24 18 14 15 16 17 17 17 18 18 18 18 16 15 15 16 17 20 23 23 22 23 24 24 24 24 23 22 22 21 22 21 20 19 19 19 19 20 20 20 18 18 17 17 17 16 15 14 14 13 12 12 11 11 10 9 8 8 7 6 6 6 5 5 4 4 4 5 5 7 8 10 11 13 14 16 17 18 20
7 8 10 15 13 8 9 16 23 23 21 20 21 21 20 19 19 19 20 22 21 19 18 18 18 19 22 23 23 24 24 24 24 23 23 22 22 22 22 22 22 21 21 20 19 19 20 19 18 17 17 16 16 16 14 13 12 11 11 11 10 10 9 8 8 7 6 5 5 4 4 4 4 5 5 6 7 8 10 12 13 15 16 17 18 19 21
6 5 9 16 18 16 16 17 19 25 28 27 26 25 22 21 21 20 20 21 22 21 21 20 18 18 20 22 23 24 25 25 24 24 24 23 22 23 23 22 22 22 21 20 18 18 19 19 18 17 16 16 15 15 14 13 11 10 10 8 8 8 7 6 6 5 4 4 4 5 5 5 5 6 7 8 9 10 12 13 14 16 17 18 19 20 22
10 7 8 14 19 20 18 15 17 26 31 28 26 26 24 22 22 21 20 20 21 21 22 21 19 19 20 22 24 25 26 26 26 25 25 24 23 23 23 22 22 21 20 20 18 18 17 17 17 16 15 15 14 13 12 11 10 9 8 7 6 6 6 5 5 5 5 5 6 6 6 7 7 8 9 10 11 12 13 13 14 15 17 18 19 20 22
15 11 9 11 15 16 14 12 17 27 30 27 25 26 24 23 22 21 20 19 20 21 22 22 22 21 20 22 24 25 26 27 27 26 25 25 25 24 23 22 21 20 19 18 17 16 16 15 15 14 13 13 13 12 11 10 9 8 8 7 7 7 6 6 6 6 6 6 7 7 7 8 8 9 10 11 11 12 13 13 14 16 17 18 19 20 21
15 13 12 9 8 11 15 14 16 24 29 27 26 26 25 24 24 22 21 19 19 20 20 20 21 22 21 22 24 25 25 26 27 27 26 26 25 24 23 21 20 18 17 17 16 16 15 15 14 14 13 12 12 11 11 10 10 9 8 8 7 7 6 6 6 6 6 6 7 7 7 8 8 9 10 10 11 12 13 14 15 16 17 18 19 20 20
15 15 15 11 9 13 17 15 15 22 28 27 26 27 27 25 24 23 21 20 19 19 19 19 19 21 22 23 25 25 26 27 28 28 27 25 24 23 22 20 19 17 16 16 15 15 15 14 14 14 13 12 12 11 11 10 9 8 8 7 7 6 6 6 5 5 5 5 6 6 7 8 8 9 10 11 12 13 14 14 15 16 16 17 19 20 20
16 17 19 15 12 14 17 15 15 22 29 28 27 28 28 26 24 23 22 21 21 21 21 21 21 22 23 25 26 27 27 28 29 28 26 25 23 22 21 19 18 17 16 15 15 15 15 14 14 13 13 12 11 11 10 9 9 8 7 7 6 6 5 5 4 4 5 5 6 7 7 8 9 10 11 12 13 14 14 15 15 15 15 16 18 19 21
17 18 19 15 11 13 18 18 17 23 30 30 28 28 27 26 26 25 24 23 23 22 23 24 25 25 26 27 28 28 28 28 28 27 25 24 22 21 20 19 18 17 16 15 14 14 14 14 13 13 12 11 11 10 10 9 8 8 7 6 6 5 5 5 5 5 6 6 7 8 8 9 10 11 12 12 13 13 14 14 14 15 16 17 17 18 19
20 20 19 16 13 15 19 18 17 23 30 30 28 28 28 27 27 27 26 26 25 25 25 26 27 27 28 28 29 29 28 27 27 25 24 23 21 20 19 18 17 16 16 15 14 14 14 14 13 13 12 11 10 10 9 9 8 7 7 6 6 6 6 6 6 7 7 8 8 9 9 10 10 11 11 12 12 12 13 14 15 16 17 16 16 16 17
21 17 15 15 15 15 18 19 19 23 28 30 30 31 31 30 30 29 28 28 27 26 26 26 26 26 27 28 28 28 26 25 24 23 22 21 20 20 19 18 17 15 15 15 15 15 15 14 13 13 12 11 10 10 9 8 8 7 7 7 7 7 7 7 7 8 8 8 9 9 9 10 10 10 10 10 11 12 14 15 16 16 16 16 16 17 18
21 15 13 17 18 17 19 20 20 22 26 29 31 32 32 31 30 29 28 28 27 26 26 26 26 26 26 27 28 27 26 25 24 23 22 21 20 20 19 18 18 17 16 16 16 16 15 14 13 12 11 11 10 9 9 9 9 8 8 8 8 8 8 8 8 8 8 8 9 9 9 9 9 9 10 11 12 14 15 15 15 15 15 16 17 17 18
22 21 22 25 25 22 22 23 24 24 26 28 29 31 31 30 29 28 27 28 27 26 25 25 25 26 26 27 27 26 25 25 24 23 22 21 20 20 19 18 18 17 17 17 16 15 14 13 12 11 11 10 10 10 10 9 9 9 9 8 8 7 8 8 8 8 9 9 9 9 9 9 9 10 11 13 14 14 14 14 14 15 15 16 16 17 18
21 22 23 24 25 25 23 23 23 24 25 26 28 29 30 29 28 27 27 27 27 26 25 25 25 26 26 26 26 25 24 23 22 21 21 20 19 19 19 18 18 18 17 16 15 14 13 12 12 11 11 11 11 11 10 10 10 9 8 8 8 8 8 9 9 9 9 9 9 9 9 10 11 12 13 14 13 13 14 14 14 15 15 16 17 18 19
19 19 18 20 23 23 22 20 19 20 21 22 24 27 29 29 27 26 26 26 26 25 25 26 27 27 26 25 24 23 22 20 19 19 19 19 19 18 18 18 18 17 16 15 14 13 13 12 12 12 12 12 11 11 10 10 9 8 8 8 8 9 9 9 9 9 9 9 9 10 10 11 12 13 13 13 13 13 14 14 15 16 17 18 19 19 20
18 18 18 17 19 20 19 18 17 18 19 20 21 23 26 27 27 26 26 26 26 26 27 27 27 26 26 24 23 21 20 19 18 17 17 18 18 18 18 17 16 15 14 14 14 14 13 13 13 13 13 12 11 11 10 9 8 8 8 9 9 9 9 9 9 9 9 9 10 11 11 11 12 12 12 13 13 14 14 16 17 17 18 19 19 20 20
17 17 16 15 16 18 19 19 19 20 20 20 20 22 23 25 26 26 26 26 27 27 27 27 26 25 24 23 22 20 19 19 18 17 17 18 18 17 17 16 15 15 14 14 14 14 14 14 14 13 12 12 11 10 9 8 8 9 9 9 9 9 9 9 9 10 10 10 10 11 11 11 11 12 13 13 14 15 16 17 18 19 19 19 20 20 19
16 16 16 16 17 18 20 22 22 22 20 19 19 20 22 24 25 25 26 27 28 28 27 26 24 23 23 22 21 21 20 19 19 18 17 17 17 17 16 16 16 16 16 15 15 15 14 14 13 13 12 11 10 9 9 9 9 9 9 9 9 9 9 10 10 10 10 10 10 10 11 11 12 13 14 15 16 17 17 18 19 19 20 20 19 19 19
15 16 17 18 19 21 23 25 24 23 21 19 18 19 21 23 24 26 27 28 28 27 26 25 23 23 22 21 21 20 20 20 19 18 17 17 17 17 17 17 17 17 17 16 15 15 14 13 12 12 11 10 10 9 10 10 9 9 10 10 10 10 10 10 10 10 10 10 10 11 12 13 14 15 16 17 18 18 19 19 19 19 20 19 19 19 19
13 15 17 19 20 22 24 25 25 24 23 21 19 20 21 23 24 25 26 27 27 26 25 24 23 22 21 20 20 20 20 20 19 18 17 17 17 17 18 18 17 17 16 15 15 14 13 12 12 11 10 10 10 10 10 10 10 10 10 11 11 11 10 10 10 10 10 11 11 13 14 15 16 17 18 18 19 19 19 19 19 19 20 19 19 19 19
11 13 16 18 20 22 24 24 25 25 24 22 22 22 23 24 25 26 26 26 26 26 25 24 23 21 20 19 19 19 19 19 19 19 19 19 18 17 17 17 16 16 15 14 13 13 12 11 11 11 10 10 10 10 10 11 11 11 11 11 11 11 11 11 11 11 12 12 13 15 16 17 17 18 18 19 19 19 20 20 19 19 19 19 19 19 19
7 10 13 16 18 21 23 23 23 24 24 24 24 24 24 24 25 25 25 25 25 24 24 24 23 21 19 18 18 18 19 19 19 20 20 20 19 18 16 15 15 14 14 13 12 12 11 11 11 11 10 10 11 11 12 12 12 12 12 11 11 11 11 11 12 12 13 14 15 16 17 18 18 19 19 19 19 20 20 20 19 19 19 20 20 20 20
5 7 9 12 15 18 20 21 21 22 23 24 24 24 24 24 24 23 23 23 23 22 22 22 21 20 19 18 17 17 18 19 20 20 20 20 19 18 17 16 14 14 13 12 12 11 11 11 11 11 11 11 12 12 12 12 12 12 11 11 11 11 12 12 13 14 15 16 17 18 18 19 19 19 19 19 20 20 20 20 20 20 20 20 20 21 21
3 4 5 8 11 14 16 17 19 20 21 23 24 24 23 22 22 22 21 20 20 20 20 20 19 18 18 18 18 17 18 19 19 19 19 18 17 16 16 15 14 14 13 12 12 11 11 11 11 12 12 12 12 12 12 12 12 12 12 12 12 12 13 14 15 16 17 18 18 19 19 19 20 20 20 20 20 20 20 20 20 20 21 21 21 22 22
3 3 4 5 7 9 11 13 15 16 17 20 22 23 22 22 22 21 20 19 19 19 18 18 17 17 17 17 17 17 18 18 18 18 17 16 15 14 13 13 13 13 12 12 11 11 11 12 12 12 12 12 12 12 12 12 12 12 12 13 13 14 15 16 17 18 18 19 19 20 20 20 20 20 21 21 21 21 21 21 21 21 22 22 23 23 23
4 4 5 5 6 7 9 11 12 14 15 17 19 21 21 20 20 19 19 18 17 17 17 17 17 17 17 17 16 15 16 16 17 17 16 15 14 13 13 13 12 12 12 11 11 11 11 12 12 12 12 12 12 12 13 13 13 13 14 14 15 16 17 18 18 19 19 20 20 20 20 21 21 21 22 22 22 22 22 23 23 22 22 23 23 23 23
8 7 7 7 7 7 8 10 11 13 14 15 17 18 19 19 18 18 18 17 17 17 18 18 19 19 19 18 17 16 16 16 15 15 15 15 14 13 13 13 12 11 11 11 11 11 12 12 12 13 13 13 13 13 13 13 14 14 15 16 17 18 18 19 19 20 20 20 21 21 21 21 21 22 23 23 23 23 24 24 24 24 23 23 24 24 23
10 10 10 10 10 10 10 11 12 13 15 16 16 17 18 18 18 18 18 18 18 19 19 19 20 19 19 18 18 17 16 16 15 14 14 13 13 12 12 12 11 11 11 11 12 12 12 13 13 13 13 13 13 13 14 14 15 16 17 17 18 19 19 19 20 20 21 21 21 21 22 22 23 23 24 24 24 24 24 24 24 24 24 24 24 24 24
11 11 12 13 13 13 13 13 14 16 17 17 18 18 18 18 18 19 19 18 18 19 19 19 19 18 17 17 16 16 15 14 13 12 12 12 11 11 11 11 11 11 11 11 12 12 12 13 13 13 13 13 14 14 15 16 17 17 18 18 19 19 20 20 20 21 21 21 22 22 23 23 24 24 25 25 25 24 24 24 24 24 24 24 24 24 24
12 13 13 14 15 15 15 15 16 18 18 18 18 18 17 17 18 20 19 17 16 16 17 17 17 16 15 15 14 13 12 11 10 10 10 10 9 9 9 10 10 10 11 11 11 12 12 12 13 13 14 15 15 16 17 17 18 18 19 19 20 20 20 21 21 21 22 22 22 23 23 23 24 25 25 24 24 24 24 24 24 24 24 25 25 25 25
17 17 17 17 18 18 19 19 18 18 18 17 17 16 15 16 17 19 19 16 14 14 13 13 14 14 13 12 11 10 10 9 8 8 8 8 8 8 9 9 9 10 10 11 11 12 12 13 14 15 16 16 17 17 18 18 19 19 19 20 20 21 21 21 22 22 22 23 23 24 24 24 25 25 25 24 24 25 25 25 25 25 25 25 25 26 26
Wind_Direction
242 251 222 174 181 186 191 194 194 197 194 193 203 219 227 211 193 246 240 173 223 248 234 222 228 212 223 233 232 238 238 238 249 258 260 261 263 266 268 268 266 270 277 282 287 288 283 278 274 268 259 254 250 246 244 241 239 238 238 237 235 233 232 231 231 229 229 231 231 231 233 235 235 231 225 220 218 218 218 219 219 219 219 221 222 222 221
249 255 234 183 193 208 198 195 197 196 193 199 209 219 228 222 220 249 252 214 237 252 232 216 223 216 225 236 239 241 241 243 250 258 260 259 259 262 268 270 268 269 274 280 285 285 282 281 279 274 264 256 253 251 248 242 239 237 237 237 237 235 233 233 233 231 230 231 231 230 232 235 235 232 226 222 220 220 220 221 221 221 221 223 224 224 225
258 257 249 219 206 221 228 219 207 203 203 207 214 220 225 224 231 247 253 256 261 256 199 206 223 217 225 240 244 244 245 247 252 258 259 258 257 260 265 268 269 270 273 277 281 283 286 286 282 278 270 260 254 254 252 248 243 238 237 237 237 237 236 234 233 233 231 232 232 232 233 235 236 233 229 225 223 223 223 223 223 223 224 225 226 226 227
248 251 254 250 240 240 243 237 221 213 213 214 216 218 216 212 223 239 246 252 258 245 150 196 220 205 213 233 238 242 246 247 249 252 253 255 258 261 264 266 269 272 272 275 279 282 287 288 284 281 274 263 256 256 255 253 248 241 237 237 236 236 236 234 234 234 233 234 235 235 235 236 237 235 232 229 227 226 226 226 226 227 227 228 228 229 229
245 250 250 244 236 236 237 234 225 220 218 219 217 221 223 216 214 225 231 237 248 244 158 205 225 195 204 227 234 241 247 247 248 250 253 257 260 263 266 268 270 273 273 273 276 279 283 284 285 283 275 266 262 261 259 257 252 245 240 238 237 236 236 235 235 235 235 235 236 236 237 238 239 237 234 231 230 229 228 229 230 230 230 230 231 231 231
249 249 215 174 205 224 231 229 225 224 220 215 216 223 227 221 213 224 237 246 256 254 220 219 224 207 221 237 242 246 250 250 253 256 259 263 266 267 269 270 272 272 272 271 271 273 276 278 282 281 273 266 263 260 258 257 254 248 243 239 237 237 236 236 235 234 235 236 237 237 238 239 239 238 235 233 232 231 230 230 231 232 232 233 233 233 233
248 199 145 190 219 226 240 240 221 223 218 212 218 228 232 226 218 229 245 254 256 253 241 232 227 228 237 246 250 252 253 254 258 262 265 268 270 271 272 274 275 274 272 271 270 270 272 276 279 280 275 268 263 257 256 255 252 249 245 240 239 238 237 236 236 235 235 237 238 239 239 239 239 239 238 236 235 233 232 231 231 232 233 235 236 237 237
217 161 184 222 241 271 291 282 231 211 210 207 214 233 243 233 218 219 232 242 247 251 250 246 244 247 254 259 259 256 254 257 261 264 268 272 274 276 279 279 278 277 273 269 267 267 269 273 276 277 274 267 259 253 251 251 250 248 244 240 239 238 238 237 237 237 236 237 238 240 239 239 240 240 240 239 238 237 235 233 233 233 235 237 239 239 240
206 218 219 239 291 313 279 254 221 178 187 189 189 219 243 234 218 217 224 236 245 249 252 253 253 258 271 276 268 261 259 263 265 267 272 276 277 277 278 277 275 274 270 266 264 265 268 271 272 271 265 257 250 245 245 246 245 244 242 240 238 238 239 240 239 239 237 237 239 240 240 240 241 242 243 243 242 241 239 237 236 235 236 238 239 240 243
201 220 234 241 252 257 252 245 205 163 179 179 169 199 242 239 218 214 218 231 241 245 252 255 251 244 266 276 267 261 263 266 268 270 273 273 272 272 272 272 272 271 269 266 265 267 268 268 264 256 249 243 238 237 239 240 240 240 238 237 237 237 239 240 240 240 239 239 241 243 244 244 245 246 247 247 247 246 244 243 240 239 239 240 240 242 247
195 208 230 227 217 241 250 244 179 164 174 160 131 177 242 248 224 212 210 224 236 239 244 243 220 165 238 264 263 258 260 264 265 268 268 265 266 267 266 268 271 271 271 267 265 265 262 255 245 234 222 213 207 209 219 225 230 234 235 236 237 238 239 239 240 242 242 243 245 246 248 249 249 250 250 250 250 249 248 247 245 243 243 243 244 248 251
209 209 225 227 226 252 251 232 174 170 160 139 117 199 241 248 216 196 192 205 225 234 236 230 190 172 223 247 261 257 249 250 255 261 265 263 261 261 261 265 267 268 268 265 259 250 235 214 194 179 166 159 159 164 177 194 207 213 217 227 232 232 234 236 237 240 241 243 245 247 249 250 250 251 251 252 254 255 255 255 254 253 252 252 252 254 254
217 213 228 239 233 247 246 192 159 153 139 133 172 224 228 198 163 175 184 198 217 228 229 215 203 220 230 238 251 254 245 245 249 256 265 265 262 258 257 258 258 252 240 219 193 173 162 154 149 148 146 146 150 154 159 160 157 156 164 180 192 197 205 214 222 227 232 238 242 244 246 247 249 251 253 256 259 260 261 261 261 261 261 260 260 259 256
221 221 233 242 243 242 215 140 148 153 148 184 222 209 151 135 157 172 185 198 213 223 224 218 219 228 233 237 246 252 253 254 255 256 257 254 247 241 233 218 203 191 176 160 149 145 141 138 138 139 138 140 140 136 133 131 135 145 154 161 171 179 186 194 202 210 217 224 228 230 232 236 238 242 246 248 251 253 255 257 258 260 262 261 261 259 257
211 230 227 222 252 231 150 127 134 181 194 224 195 154 109 146 173 179 188 200 211 217 221 224 225 227 231 233 239 246 248 248 244 232 222 212 201 190 170 157 152 150 150 147 143 144 142 139 137 132 128 128 125 124 128 132 137 142 144 146 154 159 162 167 173 181 190 195 200 205 209 215 221 227 232 237 243 247 251 256 259 261 262 262 261 260 258
195 222 217 207 252 186 154 151 185 214 207 218 146 158 177 181 181 186 194 203 210 214 219 222 220 220 224 227 232 236 230 220 208 194 183 176 172 164 155 152 148 145 151 154 149 147 145 139 134 127 123 126 129 130 134 137 138 140 140 143 146 145 148 155 160 167 173 177 183 191 196 204 214 221 228 236 243 248 252 256 260 262 263 264 264 264 264
200 217 223 219 283 181 177 187 224 211 210 225 229 196 200 194 190 194 198 203 208 213 218 220 216 218 220 219 217 212 198 185 178 175 173 169 168 165 159 155 149 148 156 158 154 150 142 134 131 127 125 129 134 134 135 137 139 141 142 143 143 144 148 154 157 162 167 170 177 184 191 202 213 219 228 236 242 249 253 256 259 262 264 265 266 267 268
281 258 229 245 308 224 205 216 242 213 210 219 223 222 222 211 204 203 203 205 209 211 213 213 211 212 211 203 194 182 175 173 171 171 170 164 160 159 154 147 144 146 151 151 150 146 137 132 133 133 133 136 138 139 141 142 142 142 142 143 144 145 148 151 154 159 164 167 174 181 185 194 201 206 216 225 234 243 249 253 259 263 265 267 268 269 270
251 243 223 211 241 248 233 234 246 233 211 210 215 221 222 216 209 202 195 197 202 204 205 206 205 201 194 185 176 170 169 169 165 163 161 154 150 149 145 140 138 142 147 146 145 145 141 138 140 141 141 143 143 143 144 143 141 142 141 141 143 144 146 149 152 155 158 161 167 172 175 182 190 197 206 215 226 238 247 254 262 267 269 271 273 274 275
195 232 252 252 263 256 237 230 234 231 212 204 206 207 205 201 193 184 178 179 187 190 190 191 192 185 177 175 170 164 163 162 158 157 155 151 148 147 144 142 143 147 150 149 147 148 145 142 142 143 143 143 142 140 139 137 136 137 137 137 139 140 140 142 144 146 149 152 155 158 163 169 177 187 198 211 229 245 255 261 266 270 271 273 276 278 279
186 255 251 252 307 288 247 229 226 222 208 201 196 188 186 186 181 177 172 169 173 177 173 176 181 173 166 167 166 162 160 159 157 156 154 152 152 151 148 147 148 151 151 148 147 146 141 139 139 140 139 138 137 135 135 135 136 138 138 138 138 138 140 141 144 146 149 152 154 158 163 167 172 185 201 218 237 253 263 267 271 274 276 278 280 282 283
215 240 219 189 195 269 247 228 223 218 203 196 192 185 182 183 182 182 176 166 163 168 171 176 180 172 163 163 164 162 160 160 159 158 158 156 155 153 149 146 146 146 146 144 144 142 137 135 137 138 138 139 138 138 140 140 140 142 143 142 142 145 146 149 153 156 159 163 168 173 180 189 200 216 233 246 258 268 276 282 285 285 286 288 289 289 290
227 230 206 196 203 239 257 231 220 213 205 201 200 197 193 189 185 183 180 173 167 168 172 175 178 174 166 164 165 164 162 161 161 159 158 157 155 152 148 146 146 145 143 143 144 140 137 137 140 142 142 142 141 141 142 139 138 141 142 140 143 147 148 151 156 161 166 173 182 192 207 223 238 252 263 270 277 284 288 291 292 293 294 295 295 295 296
242 243 210 203 210 230 245 239 222 212 208 206 202 198 193 187 181 179 181 181 174 170 170 171 175 178 172 166 167 166 162 160 160 158 156 156 154 151 149 150 150 147 144 145 145 140 138 139 142 143 144 143 142 143 143 141 141 144 144 143 145 150 154 160 168 177 191 205 217 229 238 246 254 261 269 276 283 287 290 291 292 293 294 294 295 295 295
237 248 226 211 215 225 236 238 223 213 209 204 198 192 185 180 178 175 178 182 178 172 170 169 170 175 173 168 168 168 163 160 159 158 157 156 155 153 152 153 152 149 145 145 144 140 139 142 144 146 148 148 147 149 151 152 152 156 160 164 168 173 181 191 201 213 223 229 235 240 244 251 260 267 276 282 285 287 288 288 289 289 290 291 291 292 292
230 234 213 201 212 222 223 218 210 208 204 198 191 186 179 175 174 172 172 174 171 169 169 167 166 169 171 169 168 167 163 161 160 160 161 160 158 157 155 154 153 150 146 147 147 144 144 149 151 153 157 159 159 162 166 169 173 180 187 192 197 203 209 214 219 225 229 231 237 243 249 258 267 274 280 284 285 287 289 289 290 291 291 292 293 293 294
219 217 197 179 193 211 210 209 211 207 200 193 187 181 175 171 169 166 165 167 167 168 170 170 168 168 168 169 170 169 167 166 165 164 166 164 161 159 158 156 156 154 152 154 156 156 158 162 164 166 170 174 175 179 184 188 193 199 202 205 208 209 210 213 217 221 229 236 244 254 263 270 277 281 284 287 288 290 292 293 294 295 295 296 296 296 296
209 207 199 195 211 213 206 208 214 204 194 187 183 178 173 171 170 171 172 174 174 174 176 180 180 177 174 174 176 175 175 174 172 170 169 166 163 162 161 161 162 163 164 166 169 170 172 176 178 181 185 188 189 191 194 195 197 199 199 201 204 204 206 212 218 227 241 252 261 271 277 281 286 289 291 294 294 294 295 295 295 295 296 296 297 298 298
203 201 201 206 220 215 203 201 202 195 188 185 183 180 177 177 178 181 184 184 183 183 184 186 188 187 184 184 184 184 182 180 176 173 171 169 167 167 167 168 170 172 175 179 181 182 183 186 189 191 193 192 190 190 191 191 192 195 197 199 205 209 215 227 237 249 261 268 274 280 284 287 291 293 294 295 295 295 295 294 293 294 295 296 298 299 299
197 199 202 206 211 209 204 201 196 191 189 187 184 184 186 187 186 187 189 189 188 188 189 188 188 188 188 188 188 189 188 183 178 175 174 174 173 173 175 177 180 182 184 188 190 190 190 191 190 190 191 190 188 189 193 195 197 200 202 206 213 221 229 240 250 257 265 272 276 281 284 286 288 290 290 291 292 292 292 291 292 293 296 299 300 301 300
195 199 203 204 203 203 203 201 194 191 192 191 188 188 190 191 190 189 190 191 190 188 189 189 188 188 189 190 189 189 187 183 179 177 178 179 180 181 183 185 189 192 193 193 192 191 189 189 189 190 192 193 193 195 198 201 202 205 210 215 222 230 236 244 252 258 263 268 271 274 277 279 281 284 285 286 286 285 285 288 292 295 298 300 301 301 300
190 190 194 194 190 191 197 197 192 190 192 193 194 194 193 194 195 195 193 191 189 187 187 187 187 189 191 191 189 187 185 183 182 183 184 185 187 189 190 189 190 192 194 193 192 190 189 190 192 195 196 196 198 200 202 206 209 214 220 223 228 235 240 245 251 255 259 263 266 270 273 275 276 277 277 276 277 279 283 287 291 294 296 297 298 299 298
184 175 183 186 179 179 187 192 193 195 196 197 198 199 198 198 199 198 195 190 187 186 187 188 189 191 192 189 187 186 186 186 187 187 188 189 190 191 192 192 191 191 193 193 192 191 191 192 195 197 198 199 202 205 208 212 216 220 224 228 232 237 242 246 251 255 259 264 266 266 267 267 267 268 270 274 278 282 285 287 289 290 292 294 295 296 297
204 206 210 204 196 194 196 196 197 200 200 199 199 200 201 201 200 198 195 190 187 187 189 190 189 189 187 185 185 186 187 188 188 187 188 190 192 193 193 193 194 194 193 193 193 193 193 195 197 200 202 204 206 209 212 215 219 221 225 229 233 237 243 248 252 255 257 258 258 258 258 259 263 269 275 279 282 284 286 287 289 291 293 294 295 296 296
219 222 222 215 210 211 211 208 204 203 201 200 200 200 202 202 200 196 195 193 190 189 189 188 187 185 184 183 184 185 187 189 191 191 191 192 194 195 195 195 196 197 195 194 194 194 196 199 202 204 207 208 210 213 215 216 220 222 225 230 235 241 246 248 249 250 251 251 252 252 254 259 267 274 279 282 284 286 289 291 293 294 295 295 295 295 296
219 221 222 219 216 216 217 217 215 210 204 200 199 199 201 201 199 197 196 194 193 192 190 187 185 184 182 183 185 187 189 192 195 196 197 196 196 197 198 198 198 198 197 197 198 199 202 205 206 208 211 212 212 215 217 217 220 224 228 233 239 242 244 245 247 248 250 250 251 254 258 264 271 276 280 283 286 288 290 292 294 294 295 295 296 296 297
217 218 220 222 219 217 216 215 212 207 200 196 195 197 199 199 197 197 197 196 194 193 190 186 185 184 184 185 189 191 192 194 196 198 200 200 199 199 198 198 198 199 200 205 207 205 205 208 208 209 211 212 213 215 216 217 222 228 232 236 239 240 243 247 249 251 253 254 256 260 264 269 274 278 281 283 286 288 290 292 293 294 295 296 296 297 298
217 216 218 219 216 212 209 205 201 197 194 192 192 194 196 197 197 196 197 196 193 190 187 186 187 188 189 190 192 193 194 195 197 198 199 200 200 200 200 200 200 201 203 207 208 206 206 209 209 209 210 212 212 214 217 221 227 231 232 235 239 242 247 250 251 253 255 257 259 264 268 273 277 280 282 284 287 289 291 292 293 295 296 296 297 298 299
215 214 214 212 208 204 202 199 194 191 190 192 193 192 193 197 197 196 196 193 189 187 188 190 192 193 195 196 196 195 196 197 198 199 200 200 200 201 202 203 203 204 205 206 206 205 206 207 207 208 211 212 214 218 222 225 228 230 233 239 244 247 249 250 251 253 255 257 262 268 273 276 280 283 285 287 289 291 292 293 294 294 296 296 297 298 299
210 208 206 203 199 197 197 195 191 186 185 190 194 194 193 194 194 193 192 191 189 189 192 196 197 198 199 200 200 199 199 200 199 200 202 203 204 205 205 205 205 204 205 205 204 205 207 208 207 210 213 215 217 221 223 226 230 235 240 245 247 248 249 250 251 254 259 263 269 274 278 280 283 285 287 289 290 291 291 293 293 294 295 296 296 297 297
204 202 199 196 192 190 190 191 190 186 183 186 191 193 192 190 190 190 191 192 193 194 195 198 201 203 202 202 203 203 203 201 200 200 202 205 208 208 208 206 205 204 204 204 204 205 207 209 209 211 215 217 219 223 226 231 238 243 244 246 247 247 249 253 256 261 267 271 275 278 281 282 284 285 286 287 289 289 290 291 292 292 293 293 294 294 295
197 195 193 190 187 184 184 187 188 187 184 184 187 189 189 189 190 193 195 197 198 199 198 198 200 202 203 204 204 204 203 203 203 204 204 204 205 206 206 206 205 203 202 203 203 204 206 208 210 213 216 219 222 228 233 238 242 243 243 244 246 248 252 258 262 267 272 275 278 281 283 283 284 285 286 287 288 288 289 289 290 290 290 291 291 292 292
198 194 189 188 186 183 181 182 185 186 186 185 185 186 189 191 194 197 199 200 200 201 200 199 198 198 201 204 205 205 206 207 207 207 206 202 200 199 199 201 203 202 201 201 203 204 206 208 210 214 219 224 229 234 237 238 240 241 242 245 249 253 259 264 269 273 276 279 281 283 284 284 285 286 287 287 287 287 287 287 288 288 288 289 290 291 291
208 197 187 186 185 182 180 181 183 186 188 187 186 186 189 191 193 196 199 200 200 200 200 200 199 199 200 203 205 208 210 209 206 205 203 201 198 196 194 194 196 198 198 200 202 203 206 211 215 219 225 229 231 234 236 237 239 243 246 251 256 262 266 271 274 277 279 281 283 284 285 285 286 286 286 286 286 286 286 287 287 287 288 288 289 290 290
219 205 190 186 185 182 180 182 183 185 188 188 186 184 186 189 191 193 195 197 199 199 197 198 201 202 203 203 202 203 204 203 201 200 198 198 199 198 194 192 193 195 197 200 203 206 210 216 219 223 227 230 231 234 237 240 244 249 254 259 264 268 271 274 276 278 280 282 283 284 285 285 285 285 285 285 285 285 286 286 286 287 287 288 288 288 289
190 184 176 176 177 177 178 180 181 184 187 188 184 180 180 183 188 189 189 191 195 195 195 196 198 199 199 198 196 194 195 195 194 193 191 191 194 195 193 191 193 195 197 201 206 209 215 220 223 226 229 232 235 239 243 247 252 257 261 265 269 272 274 276 277 279 280 281 282 282 283 283 284 284 284 284 284 285 285 285 285 286 287 287 287 287 288
156 162 165 167 171 173 174 175 176 177 180 182 181 176 173 174 179 182 181 183 187 189 189 190 189 186 184 184 184 186 189 190 189 187 186 185 186 188 189 190 193 196 201 206 210 215 220 224 227 230 233 236 240 245 249 253 258 262 266 269 271 273 274 276 277 278 279 280 280 281 282 282 282 283 284 284 285 285 285 285 286 286 286 286 286 287 287
155 158 157 158 161 164 166 169 169 168 168 172 175 171 166 167 172 175 174 175 179 181 181 180 178 176 175 174 174 176 180 183 184 185 184 182 183 186 188 191 195 200 205 210 215 219 223 227 230 234 238 242 246 251 255 259 263 266 269 271 273 274 275 277 278 278 279 280 280 280 281 281 282 283 283 284 285 285 286 286 286 286 286 286 286 286 287
154 156 155 156 157 157 158 162 162 160 160 163 165 163 161 164 168 168 167 169 172 173 172 171 170 170 170 170 171 173 175 176 179 182 182 182 183 186 189 194 200 205 209 216 221 225 230 234 238 241 246 250 254 259 263 266 268 270 271 273 274 275 277 278 278 279 279 279 280 280 281 281 282 282 283 283 284 284 285 285 285 286 286 286 286 286 287
143 147 149 149 149 149 152 156 156 155 155 156 155 153 156 161 162 159 157 160 165 166 165 164 164 164 166 167 168 171 172 173 175 177 180 181 184 189 195 201 208 214 220 226 231 235 239 242 246 250 255 260 263 266 268 270 271 272 273 274 276 277 278 279 279 279 279 280 280 280 280 281 281 281 281 282 282 283 283 284 285 285 285 285 286 286 286
125 128 131 133 135 137 140 144 144 144 143 143 141 141 146 153 153 148 145 148 155 160 161 160 158 158 160 163 165 167 170 172 173 176 181 187 193 201 208 215 222 227 232 236 240 244 249 253 258 261 264 267 268 270 271 273 274 275 277 278 279 279 280 280 280 280 281 281 281 280 280 280 280 280 280 281 282 282 282 283 283 284 284 284 285 285 285
114 115 116 119 123 125 125 125 126 126 127 127 128 131 138 145 146 141 137 138 143 148 152 156 156 154 155 158 162 164 168 172 175 181 190 200 208 217 224 230 234 240 245 249 253 257 261 264 266 268 270 271 273 274 275 276 278 278 279 280 280 280 281 281 282 282 282 282 282 282 282 281 280 280 281 281 282 282 283 283 283 283 284 284 284 284 285